User: anonymous   Login
Location: Unspecified
(0.0000°N, 0.0000°E)
Time: 06:16:13
(UTC+00:00)
Language:

Akebono - Orbit

View from above orbital plane
View from above orbital plane
View from above satellite
View from above satellite

Ground track
Ground track

The orbit data is extracted from the following two-line orbital elements,

1 19822U 89016A   17119.69007125 +.00010881 +87095-6 +22436-3 0  9998
2 19822 075.0440 346.4755 1918967 255.9305 082.2105 11.66542847903596
Epoch (UTC): 29 April 2017 16:33:42
Eccentricity: 0.1918967
inclination: 75.0440°
perigee height: 258 km
apogee height: 3410 km
right ascension of ascending node: 346.4755°
argument of perigee: 255.9305°
revolutions per day: 11.66542847
mean anomaly at epoch: 82.2105°
orbit number at epoch: 90359

The dashed part of the orbit path shows where the satellite is in the earth's shadow,  

DLR